Weather Roundup
Issued by NWS

Home | Current Version | Previous Version | Graphics & Text | Print | Product List | Glossary Off
Versions: 1 2 3 4 5 6 7 8 9 10 11 12 13 14 15 16 17 18 19 20 21 22 23 24 25 26 27 28 29 30 31 32 33 34 35 36 37 38 39 40 41 42 43 44 45 46 47 48 49 50

000
NZUS93 KARX 272210
HRRWXR

CURRENT HOURLY OBSERVATIONS ACROSS
MUCH OF THE UPPER MISSISSIPPI VALLEY
NATIONAL WEATHER SERVICE LA CROSSE WI
500 PM CDT MON APR 27 2015


...SOUTHEAST MINNESOTA...


CITY           SKY/WX    TMP DP  RH WIND       PRES   REMARKS
ROCHESTER      SUNNY     65  33  30 N14       30.15F
ROCHESTER/MAYO FAIR      66  32  27 NW7       30.14F
WINONA         SUNNY     70  32  24 N3        30.13F
AUSTIN         SUNNY     64  30  27 N9        30.14F
ALBERT LEA     SUNNY     66  25  20 N7        30.15F
DODGE CENTER   SUNNY     64  28  25 N8        30.15S
PRESTON        SUNNY     63  33  32 NE12      30.14F
OWATONNA       SUNNY     66  25  20 N5        30.16S
FARIBAULT      SUNNY     66  27  22 NW5       30.16F
$$

...ELSEWHERE IN MINNESOTA...


CITY           SKY/WX    TMP DP  RH WIND       PRES   REMARKS
MINNEAPOLIS    MOSUNNY   69  25  19 VRB6      30.16S
INTNL FALLS    PTSUNNY   68  27  21 N8        30.14F
DULUTH         SUNNY     68  24  19 N7        30.13F
RED WING       SUNNY     70  21  16 N5        30.13F
REDWOOD FALLS  SUNNY     70  20  15 NE7       30.16F
MANKATO        SUNNY     66  25  20 N8        30.16F
WORTHINGTON    SUNNY     66  23  19 NE8       30.17S
FAIRMONT       SUNNY     68  25  19 E5        30.15F
$$

...SOUTHWEST WISCONSIN...


CITY           SKY/WX    TMP DP  RH WIND       PRES   REMARKS
LA CROSSE      SUNNY     70  33  25 N10G22    30.12F
PRAIRIE DU CHI SUNNY     66  27  23 N13G18    30.11F
BOSCOBEL       SUNNY     68  32  26 VRB7      30.11F
LONE ROCK      SUNNY     67  30  25 NW13G20   30.09F
PLATTEVILLE    SUNNY     65  33  30 N12       30.10F
FORT MC COY    SUNNY     68  28  22 W13G20    30.11F
CAMP DOUGLAS   SUNNY     68  30  24 N13G18    30.09F
VIROQUA        FAIR      65  31  28 N14       30.12F
WIS DELLS      SUNNY     65  29  25 NW12G18   30.09S
$$

...ELSEWHERE IN WISCONSIN...


CITY           SKY/WX    TMP DP  RH WIND       PRES   REMARKS
MILWAUKEE      MOSUNNY   45  32  60 N9        30.15S
MADISON        MOSUNNY   67  30  25 N9        30.08F
GREEN BAY      SUNNY     61  35  37 NE7       30.10S
EAU CLAIRE     SUNNY     69  28  21 N10       30.12F
BLACK RVR FLS  FAIR      69  28  21 N12       30.11S
MEDFORD        SUNNY     64  31  28 N10       30.11F
WAUSAU         SUNNY     66  28  24 N9        30.08S
WIS RAPIDS     SUNNY     68  27  21 VRB6      30.10F
MARSHFIELD     SUNNY     68  29  23 N12       30.10F
RICE LAKE      SUNNY     67  27  22 N12       30.15S
$$

...NORTHEAST IOWA...


CITY           SKY/WX    TMP DP  RH WIND       PRES   REMARKS
DECORAH        SUNNY     64  32  29 NE13      30.12F
MASON CITY     SUNNY     66  30  26 NE13      30.15F
CHARLES CITY   SUNNY     66  32  28 N8        30.13F
OELWEIN        SUNNY     66  32  28 NE13      30.12F
$$

...ELSEWHERE IN IOWA...


CITY           SKY/WX    TMP DP  RH WIND       PRES   REMARKS
DES MOINES     MOSUNNY   69  30  23 NE12G18   30.11F
IOWA CITY      SUNNY     67  36  31 N8        30.11F
FORT DODGE     SUNNY     66  34  30 NE10G16   30.14F
$$

...NORTHERN ILLINOIS...


CITY           SKY/WX    TMP DP  RH WIND       PRES   REMARKS
CHICAGO-OHARE  MOSUNNY   51  33  50 NE17      30.12S
CHICAGO-MIDWAY MOSUNNY   52  34  50 NE20      30.13S
MOLINE         SUNNY     66  33  29 NE10      30.08F
ROCKFORD       MOSUNNY   65  32  29 N13G20    30.10F
PEORIA         SUNNY     65  35  33 N14G23    30.07F
$$

NOTE: "FAIR" INDICATES FEW OR NO CLOUDS BELOW 12,000 FEET WITH NO
SIGNIFICANT WEATHER AND/OR OBSTRUCTIONS TO VISIBILITY. WIND
SPEEDS ARE IN MILES-PER-HOUR.



USA.gov is the U.S. government's official web portal to all federal, state and local government web resources and services.